This is the latest recevied weather packets stored in our database for station/object VE6HFD-WX. If no packets are shown the sender has not sent any weather packets the latest 1 day(s).
| Time | Temp. | Humidity | Pressure | Rain* | Wind** | Luminosity | Snow |
|---|---|---|---|---|---|---|---|
| 1778028578 | 7.78° C | 33% | 1020.5 hPa | 0 mm | 2.68 m/s, 39° | - | - |
| 1778028278 | 7.78° C | 34% | 1020.6 hPa | 0 mm | 2.68 m/s, 39° | - | - |
| 1778027948 | 7.78° C | 33% | 1020.6 hPa | 0 mm | 1.34 m/s, 33° | - | - |
| 1778027618 | 7.78° C | 34% | 1020.7 hPa | 0 mm | 3.58 m/s, 26° | - | - |
| 1778027288 | 7.78° C | 34% | 1020.7 hPa | 0 mm | 3.13 m/s, 22° | - | - |
| 1778026958 | 7.78° C | 35% | 1020.7 hPa | 0 mm | 0.45 m/s, 54° | - | - |
| 1778026658 | 7.78° C | 35% | 1020.8 hPa | 0 mm | 2.24 m/s, 35° | - | - |
| 1778026358 | 7.78° C | 34% | 1020.8 hPa | 0 mm | 4.02 m/s, 5° | - | - |
| 1778026028 | 7.78° C | 35% | 1020.9 hPa | 0 mm | 3.58 m/s, 11° | - | - |
| 1778025698 | 7.78° C | 34% | 1020.9 hPa | 0 mm | 3.58 m/s, 353° | - | - |
| 1778025398 | 7.78° C | 34% | 1020.8 hPa | 0 mm | 4.02 m/s, 30° | - | - |
| 1778025098 | 7.78° C | 34% | 1020.8 hPa | 0 mm | 2.24 m/s, 17° | - | - |
| 1778024798 | 7.78° C | 34% | 1020.9 hPa | 0 mm | 3.58 m/s, 18° | - | - |
| 1778024468 | 7.78° C | 34% | 1020.9 hPa | 0 mm | 4.02 m/s, 19° | - | - |
| 1778024168 | 7.78° C | 35% | 1021 hPa | 0 mm | 2.68 m/s, 27° | - | - |
| 1778023838 | 7.78° C | 34% | 1021.1 hPa | 0 mm | 2.68 m/s, 0° | - | - |
| 1778023538 | 7.78° C | 35% | 1021 hPa | 0 mm | 3.58 m/s, 10° | - | - |
| 1778023238 | 7.22° C | 36% | 1021.1 hPa | 0 mm | 2.68 m/s, 45° | - | - |
| 1778022938 | 7.22° C | 36% | 1021.1 hPa | 0 mm | 3.13 m/s, 12° | - | - |
| 1778022608 | 7.78° C | 38% | 1021.2 hPa | 0 mm | 4.02 m/s, 8° | - | - |
| 1778022308 | 7.78° C | 38% | 1021.2 hPa | 0 mm | 3.13 m/s, 28° | - | - |
| 1778022008 | 7.22° C | 36% | 1021.2 hPa | 0 mm | 3.13 m/s, 0° | - | - |
| 1778021708 | 7.22° C | 37% | 1021.2 hPa | 0 mm | 4.02 m/s, 9° | - | - |
| 1778021378 | 7.78° C | 37% | 1021.3 hPa | 0 mm | 4.47 m/s, 354° | - | - |
| 1778021048 | 7.78° C | 36% | 1021.3 hPa | 0 mm | 2.68 m/s, 39° | - | - |
* Rain latest hour (hover to see other rain measurements)
** Current wind speed in m/s (hover to see current wind gust speed)